Wind_Speed
33 34 34 33 31 31 32 34 35 36 36 37 41 44 44 42 41 41 42 42 43 43 44 44 42 40 40 41 41 41 41 42 42 43 45 46 45 46 48 50 50 48 47 48 51 54 55 54 56 58 59 57 56 57 60 62 65 67 70 74 77 79 81 81 82 82 82 81 79 77 77 77 77 79 81 83 82 79 76 73 71 71 70 68 67
31 33 33 32 31 31 33 34 34 35 36 36 39 41 42 42 42 41 42 43 44 44 44 43 41 39 39 41 43 43 44 43 43 44 45 45 46 48 51 52 49 47 47 50 53 54 54 55 56 57 55 55 57 59 61 64 67 70 73 76 78 80 80 81 81 81 80 79 78 77 77 77 78 81 84 84 81 77 74 73 73 71 70 68 67
31 32 31 31 31 31 32 33 34 34 34 36 39 42 42 41 42 42 42 43 44 45 45 44 42 41 41 43 45 45 45 44 43 44 45 46 49 51 52 50 48 47 49 51 53 54 55 55 54 54 54 56 59 61 63 67 70 73 75 77 78 79 80 81 80 79 78 77 76 76 77 78 80 83 84 83 79 74 73 73 72 70 69 68 67
30 31 31 31 31 31 32 33 33 32 33 35 38 41 43 42 41 41 41 43 44 45 46 45 44 44 44 45 45 45 45 44 45 46 48 50 51 51 50 48 47 47 49 51 54 55 54 53 52 53 56 58 61 64 67 70 72 75 76 77 79 80 80 79 78 77 76 75 75 76 77 79 82 84 84 80 75 72 72 73 71 69 68 67 67
28 30 32 32 32 32 32 33 32 31 32 34 35 39 42 43 43 41 41 41 44 46 46 46 45 45 45 46 46 45 46 47 47 49 50 50 49 48 47 47 46 47 49 52 54 54 52 51 53 56 58 61 64 67 70 72 74 76 76 78 79 79 78 77 76 75 74 74 74 75 77 79 83 84 81 76 72 71 72 72 71 70 69 68 67
27 29 32 32 32 32 33 33 32 31 31 32 34 36 39 42 43 43 42 42 43 45 46 46 45 45 46 46 46 47 47 48 48 49 48 47 46 46 46 46 46 49 51 52 52 51 52 54 56 59 61 64 67 69 71 73 75 75 77 78 78 76 76 75 74 73 72 73 74 75 77 80 83 82 77 73 72 72 73 73 72 71 71 70 69
27 29 31 31 31 32 33 32 31 32 32 33 33 34 35 38 40 42 43 43 44 45 45 45 45 45 46 47 47 47 47 47 47 47 46 45 45 44 45 46 48 50 52 51 52 53 55 57 59 61 64 67 69 71 73 74 74 75 77 77 75 75 75 75 73 72 72 73 74 75 78 81 82 79 74 71 71 72 73 74 73 72 72 71 70
28 29 29 30 30 31 32 32 32 32 33 34 35 34 34 35 37 40 42 43 45 45 45 46 46 46 46 46 47 46 46 46 46 46 46 45 45 45 46 48 50 52 52 53 54 55 57 59 61 64 67 69 70 72 72 73 74 76 76 74 73 75 76 74 71 71 72 73 74 75 78 81 80 76 72 71 73 74 74 74 73 73 72 71 69
29 28 29 29 30 31 31 32 33 33 33 34 36 36 36 35 36 37 40 43 44 45 46 47 47 47 47 47 48 47 47 46 46 45 45 45 46 47 48 49 50 51 52 53 55 57 59 62 65 67 69 70 70 71 71 73 75 74 72 71 73 76 75 72 71 72 72 73 74 76 79 80 78 75 72 72 74 75 75 74 73 73 73 71 69
29 29 29 29 30 30 30 31 32 34 34 35 36 38 39 39 37 37 38 42 44 45 46 48 49 49 49 50 49 48 46 45 44 43 44 45 46 47 48 49 50 51 53 55 57 60 63 65 67 68 69 69 69 69 71 74 74 71 70 72 75 77 74 71 71 72 73 73 74 76 79 80 78 75 73 73 74 75 75 74 74 74 73 72 70
29 29 29 29 30 30 31 31 32 33 34 35 35 36 38 40 41 40 39 41 44 46 47 48 50 51 52 52 50 48 46 44 43 43 44 46 47 49 50 51 53 54 56 58 61 63 65 66 67 68 67 67 68 71 73 73 70 68 70 74 76 75 73 71 72 72 73 74 75 77 79 79 78 76 74 74 75 76 75 74 73 72 72 70 69
30 30 29 28 29 30 31 31 31 32 33 33 34 35 35 38 40 41 42 42 44 46 48 48 49 51 52 53 52 51 49 47 46 47 48 49 50 52 53 55 56 58 59 61 63 64 66 66 66 66 66 67 70 72 71 69 67 68 73 75 76 74 73 72 72 72 73 73 75 77 78 79 79 77 76 75 76 76 75 73 72 71 70 68 67
30 30 28 28 29 30 31 32 31 31 32 32 33 34 35 36 38 40 42 43 45 47 49 50 51 51 52 53 53 52 52 51 51 51 51 53 54 55 57 58 59 60 61 63 64 64 65 64 64 65 66 68 70 70 68 66 67 71 74 75 75 74 73 72 72 73 73 73 74 76 78 79 79 77 76 76 76 75 74 72 71 70 69 67 65
30 29 28 28 28 29 31 32 32 32 32 32 33 34 35 36 37 38 40 42 44 47 48 49 50 50 50 50 50 50 51 52 53 53 54 56 57 58 59 60 60 61 62 63 63 63 62 62 63 65 67 69 69 67 65 66 69 73 75 75 75 74 72 72 72 72 72 73 74 76 77 79 79 77 76 76 74 73 71 70 70 70 69 67 65
30 29 28 28 28 29 30 32 33 33 33 33 32 33 35 36 37 38 40 41 43 44 46 47 47 48 48 47 47 48 50 52 53 54 56 57 58 59 59 60 61 62 62 61 60 60 61 62 64 66 67 67 65 63 65 68 72 75 75 75 75 74 72 71 72 72 72 72 73 75 77 78 78 76 75 74 73 71 70 69 70 71 70 69 67
30 29 29 29 28 28 30 31 33 34 34 34 34 34 35 36 38 39 40 41 42 43 44 45 45 46 47 47 47 48 49 51 52 54 55 56 57 58 59 60 60 60 59 59 59 60 61 63 65 66 65 63 62 63 67 71 74 75 75 75 75 73 71 71 71 71 71 71 73 74 76 77 77 76 74 74 73 72 70 70 70 71 70 69 67
30 30 30 30 29 28 29 31 33 34 35 35 35 35 36 37 38 39 40 41 43 44 45 46 46 47 47 48 49 51 52 52 54 55 56 58 58 59 59 59 57 57 57 58 59 61 62 64 64 63 62 61 62 66 70 73 75 75 75 75 74 71 70 71 71 70 70 71 72 74 75 77 76 75 74 73 72 71 69 68 68 68 68 67 65
31 32 32 31 30 29 29 30 32 34 35 35 35 35 36 36 37 38 39 40 42 44 45 47 48 49 50 51 52 53 54 55 56 57 58 59 59 58 57 56 55 56 58 59 61 62 62 62 61 60 60 62 65 69 72 74 74 74 75 74 72 70 70 71 70 69 69 70 71 73 75 76 75 74 73 72 71 69 67 65 65 65 66 65 64
31 33 33 32 31 30 30 30 31 33 35 35 35 34 34 35 36 37 38 39 39 41 43 45 47 49 50 51 52 54 55 56 57 57 58 58 57 55 55 55 56 58 59 60 60 60 59 58 58 58 61 65 68 71 72 73 74 74 74 73 70 69 70 71 70 69 69 70 71 72 74 74 73 71 71 71 69 67 65 63 62 63 64 64 63
33 35 34 33 33 32 31 30 30 31 33 34 34 34 34 35 36 37 38 39 40 41 42 44 46 48 49 51 52 54 55 55 56 57 57 56 55 54 55 56 57 57 58 58 57 56 56 56 57 60 64 68 70 71 72 73 73 74 73 71 69 69 70 70 69 68 68 69 70 71 72 72 70 69 69 69 68 66 65 62 61 61 63 63 63
36 36 35 35 34 33 32 31 31 31 31 31 32 32 33 35 36 37 38 39 40 41 43 45 46 48 50 51 52 53 53 53 53 53 53 53 53 54 54 54 54 55 55 55 54 54 55 57 60 64 67 69 70 71 72 72 73 73 71 69 68 69 70 69 68 67 68 69 69 71 72 71 69 68 69 69 68 67 65 62 61 61 62 63 63
37 37 37 36 36 35 34 33 33 32 32 32 32 32 32 33 35 36 37 38 39 41 42 44 45 46 47 48 49 50 50 50 50 50 50 51 51 52 52 52 53 53 53 53 54 55 58 62 65 66 68 69 70 71 71 71 71 71 69 67 67 69 69 68 67 67 68 68 69 70 71 70 68 67 68 69 68 67 65 63 61 62 62 63 62
39 38 38 37 37 36 36 36 35 34 33 33 34 34 35 35 36 36 38 39 40 41 42 42 43 43 44 45 45 45 45 46 46 47 47 48 49 50 51 52 53 53 53 55 57 60 63 65 66 67 68 69 70 70 70 70 70 69 67 66 67 69 68 67 67 67 67 68 69 69 70 70 68 67 68 69 69 68 65 63 61 62 63 63 63
39 39 39 38 38 37 37 37 37 36 35 35 35 35 36 37 38 39 40 40 40 40 40 41 41 42 42 43 44 44 43 43 44 45 47 48 49 50 51 52 53 55 56 59 61 63 64 64 66 67 68 69 69 69 69 69 69 67 66 66 68 69 68 67 67 67 67 68 68 69 70 69 67 67 68 69 69 68 65 63 62 62 63 64 64
40 40 39 38 38 39 39 39 39 38 37 37 37 37 37 38 38 39 40 39 39 39 40 41 41 41 42 44 45 45 45 45 46 47 48 49 49 50 52 54 56 58 59 61 62 63 64 65 67 68 68 68 68 68 68 68 67 65 65 66 68 68 67 67 67 67 67 68 68 69 70 69 68 68 68 68 69 68 65 63 63 63 64 65 66
41 40 40 39 40 40 40 40 40 39 38 38 38 38 38 38 39 39 39 40 40 41 42 42 42 42 42 43 44 45 46 46 47 48 49 50 52 54 56 58 59 59 60 61 62 64 66 67 68 68 67 67 67 66 67 67 65 64 65 67 67 67 67 67 67 67 68 68 68 69 69 69 68 68 68 68 69 68 65 63 63 64 65 65 66
42 41 41 41 41 41 41 41 41 40 40 39 39 40 39 39 39 40 40 41 42 43 44 44 44 44 44 45 45 46 46 47 48 49 51 53 54 56 58 58 59 60 62 63 64 66 67 67 67 67 66 66 66 66 66 65 63 64 66 66 66 66 67 68 67 68 68 68 68 69 69 69 69 69 69 69 68 68 66 64 64 65 65 65 66
43 43 43 42 42 42 42 42 41 41 40 40 40 41 40 40 40 40 40 41 43 44 45 45 46 47 47 48 48 48 49 49 50 51 53 54 56 57 58 60 61 63 63 64 65 66 67 67 67 66 65 65 65 64 64 63 63 65 65 65 65 66 67 67 68 68 68 68 68 69 70 70 70 70 70 70 69 68 66 66 66 66 66 66 66
45 44 44 44 44 43 43 42 41 41 41 41 42 42 42 41 42 41 41 41 42 43 45 46 47 48 49 51 51 52 52 53 54 55 56 57 58 60 61 62 62 63 63 63 64 65 66 66 65 64 63 63 63 62 61 62 64 64 64 64 65 67 67 67 68 68 68 68 69 70 70 70 70 71 71 71 70 68 68 68 68 68 68 67 67
45 45 45 45 45 44 43 43 42 43 42 43 44 44 43 43 44 43 43 43 43 43 43 44 46 47 49 51 52 52 53 55 56 57 58 59 59 60 60 60 60 60 60 62 63 63 63 63 62 62 61 61 60 60 62 63 63 63 63 64 66 66 67 67 67 67 68 69 69 70 70 71 71 72 72 72 71 70 70 70 70 70 70 69 68
45 46 47 47 47 46 45 44 44 44 44 44 45 46 45 45 45 45 45 45 44 44 44 44 45 46 48 50 51 51 52 54 54 55 56 56 56 57 57 57 58 58 59 60 61 61 61 60 60 59 58 58 59 61 62 62 61 62 63 65 66 66 66 66 66 67 68 68 69 70 71 72 72 73 73 73 73 72 72 73 73 73 73 71 70
47 48 49 49 48 48 47 46 46 46 46 46 47 47 47 47 47 47 47 47 46 46 46 46 47 48 49 50 50 50 51 52 52 52 54 54 55 55 56 57 58 58 59 60 60 59 59 58 58 57 57 59 61 62 61 60 61 63 64 65 65 65 65 65 66 67 68 68 69 70 71 73 74 74 75 75 74 74 75 75 76 76 76 74 73
48 50 51 50 50 49 48 48 48 48 48 48 49 49 49 49 49 49 50 49 48 48 48 48 49 50 51 50 49 49 50 50 51 52 54 56 56 57 57 58 58 58 59 59 58 58 57 57 56 57 58 59 60 60 59 60 62 64 65 65 65 65 65 66 66 67 68 69 69 69 71 73 75 76 77 77 76 76 77 78 78 79 78 77 75
50 51 52 52 51 51 50 50 50 50 49 49 50 51 52 51 51 51 52 51 50 50 49 49 50 51 52 51 50 50 51 52 53 55 57 58 58 58 57 58 58 59 58 58 57 57 56 56 56 56 57 57 58 59 60 62 63 64 65 65 65 65 65 67 68 68 69 70 69 70 72 74 76 78 79 79 78 79 79 80 81 81 81 79 78
51 53 54 53 53 52 51 52 52 52 51 51 51 53 54 53 52 53 53 53 53 52 50 49 50 51 51 51 50 52 53 54 55 57 58 58 58 58 58 59 58 58 58 57 57 57 57 56 56 55 55 56 58 60 62 63 63 64 65 65 65 66 66 68 69 70 71 71 71 72 74 76 78 80 81 80 80 80 82 83 83 83 83 82 80
53 55 55 55 54 53 53 54 54 54 53 53 53 54 55 55 55 54 53 53 55 54 51 51 52 52 52 51 51 52 54 55 56 57 58 58 58 58 58 59 59 58 58 58 57 56 56 55 54 54 55 57 59 60 62 63 64 65 66 66 67 68 68 69 70 71 73 74 75 76 78 79 81 82 82 81 81 82 84 85 85 86 85 84 82
54 56 57 56 55 54 55 56 56 56 55 55 55 56 57 57 57 55 51 51 55 57 55 54 54 54 54 53 53 54 54 55 56 58 59 59 59 59 59 59 58 57 56 56 55 55 54 54 54 56 57 58 59 61 62 64 65 65 67 68 69 69 70 71 72 73 75 77 78 79 80 81 82 83 83 82 83 84 86 87 87 87 87 86 84
55 57 57 57 56 56 57 58 58 58 58 58 58 58 58 58 58 56 52 52 55 57 56 56 56 56 55 56 56 56 57 57 58 60 60 60 60 60 59 59 57 56 55 55 55 55 55 56 57 58 58 59 60 62 63 64 65 66 68 70 71 71 72 73 74 76 78 79 80 81 81 82 83 84 83 84 85 86 87 88 89 89 88 88 86
56 57 58 57 58 59 60 61 61 61 60 60 59 59 59 59 59 58 55 53 54 56 55 56 57 57 57 57 58 60 61 60 61 62 63 62 62 60 59 58 57 57 57 57 57 58 58 59 59 59 59 60 62 63 63 64 65 68 70 71 72 73 74 75 76 78 79 80 81 82 83 83 84 84 84 85 86 88 89 89 90 90 90 89 87
58 59 59 59 60 61 62 62 63 63 62 62 61 60 61 61 60 59 56 54 54 55 55 56 58 59 58 58 60 62 63 63 63 64 64 64 63 61 59 60 60 60 60 61 61 61 61 60 59 59 60 62 63 63 64 65 67 70 71 73 73 74 75 76 78 79 80 81 82 83 84 84 85 85 86 87 88 89 90 91 91 91 91 90 87
59 60 59 59 61 63 64 65 65 65 64 64 63 63 63 62 60 57 55 54 54 55 55 56 59 61 61 62 63 63 62 62 62 63 65 66 65 63 62 63 64 65 65 65 65 64 64 62 59 59 61 64 65 65 67 69 71 73 74 74 74 75 77 78 79 80 81 82 83 84 85 85 86 87 87 88 90 91 92 92 92 92 91 90 88
61 60 60 62 65 67 67 68 68 68 67 66 66 65 64 62 58 55 53 53 54 55 54 55 58 61 63 64 62 59 58 59 61 63 65 67 67 66 66 67 68 69 69 69 69 69 68 66 63 62 64 66 68 70 72 74 75 77 77 76 76 77 79 80 80 81 83 84 84 85 86 86 88 89 90 90 91 92 93 93 93 92 91 90 89
65 64 63 65 69 70 70 71 71 70 69 68 67 66 63 60 57 55 53 53 55 55 54 54 57 60 63 63 60 58 59 62 64 65 66 68 69 69 69 69 70 71 71 72 73 73 74 73 72 71 70 71 73 75 76 77 79 80 80 78 77 78 80 81 83 84 85 86 87 87 88 89 90 91 92 92 93 93 93 93 93 92 91 90 90
69 68 67 69 70 72 72 73 72 71 70 69 67 65 62 59 57 55 54 54 55 55 53 53 56 59 62 62 62 62 64 66 67 66 67 68 69 71 72 72 72 72 73 73 74 75 76 77 77 77 76 77 77 78 79 80 82 83 82 79 79 80 82 85 87 88 88 89 89 90 91 92 93 93 93 93 93 94 93 93 92 91 90 90 91
70 70 70 70 71 72 73 74 74 72 70 68 65 63 61 59 57 56 55 55 55 55 53 53 55 58 60 62 63 64 65 65 66 66 66 67 69 72 73 74 74 74 75 76 77 78 78 79 80 80 80 80 80 80 82 84 85 84 82 81 81 83 86 89 91 91 91 92 92 93 95 95 95 94 93 93 93 93 92 92 91 91 91 92 92
71 71 71 71 72 72 73 74 73 71 68 66 64 62 61 60 59 58 57 56 56 55 54 54 56 58 59 62 64 65 65 65 66 66 67 68 69 72 74 75 76 76 76 77 78 79 80 80 81 82 82 81 82 84 85 85 83 82 81 83 86 88 91 92 93 93 93 94 95 97 97 96 94 93 92 92 92 92 91 91 91 91 92 93 93
71 71 71 72 72 72 72 72 71 69 67 65 63 62 61 61 60 60 59 58 57 57 56 56 57 59 60 62 63 65 66 67 68 69 69 70 71 72 73 74 74 74 75 76 78 79 80 81 82 83 83 83 83 83 83 81 81 82 85 88 90 92 93 93 93 94 95 97 98 97 96 93 92 91 91 91 90 90 91 91 92 93 93 93 93
71 71 70 71 71 71 71 70 69 68 66 65 63 62 62 62 61 61 60 60 59 59 60 61 61 62 63 64 66 67 68 69 70 70 71 71 72 73 73 74 74 75 76 77 78 79 80 81 82 82 82 81 80 80 80 82 85 88 90 92 93 93 93 94 95 97 98 98 96 94 91 90 89 89 89 89 90 90 91 92 93 94 94 93 92
69 69 69 69 70 70 69 69 68 68 67 65 63 63 62 62 62 62 61 61 61 61 62 64 65 65 66 67 68 69 69 69 70 70 71 72 72 73 73 74 75 76 77 78 78 78 79 79 80 80 80 81 81 83 86 89 91 92 93 93 93 94 95 97 98 97 96 94 91 88 87 87 87 87 88 89 90 91 92 93 93 94 93 93 93
67 67 67 67 68 68 68 68 69 68 66 64 63 63 63 62 62 62 62 62 63 63 64 65 66 66 66 67 68 68 69 70 70 71 72 72 72 72 73 74 75 76 78 78 79 80 81 81 82 83 84 85 87 89 91 92 92 92 93 94 95 96 97 97 95 93 90 87 85 84 84 85 86 87 88 89 90 91 92 93 93 94 94 93 93
65 65 65 66 66 66 67 69 70 69 66 64 64 64 64 64 63 63 63 63 64 65 66 67 67 67 67 68 68 69 70 71 71 72 72 72 72 72 74 74 75 77 78 80 81 82 83 84 85 86 87 89 90 90 91 91 92 93 94 95 96 96 94 92 89 86 84 82 82 83 83 84 86 87 89 90 91 92 93 93 94 94 94 94 94
Wind_Direction
259 257 256 257 258 258 256 253 249 246 243 239 235 235 236 236 238 239 239 238 236 236 238 242 247 252 256 258 259 261 262 264 266 266 265 269 274 278 283 288 290 291 291 292 293 293 293 293 295 298 299 298 299 302 305 306 309 311 313 314 315 317 318 319 319 319 319 320 321 321 322 323 323 324 325 325 324 323 322 322 321 320 320 319 317
259 257 256 256 256 256 255 254 250 247 245 241 235 234 234 234 234 237 240 241 240 239 240 243 247 252 258 260 262 263 264 266 268 268 268 271 275 281 285 288 288 289 291 293 294 294 295 295 296 297 297 298 301 304 307 309 311 313 314 316 317 318 319 319 319 320 320 321 322 323 323 324 325 326 326 325 324 324 323 324 324 323 323 322 321
261 258 256 255 254 255 255 253 250 247 245 242 237 233 233 233 233 236 240 243 244 244 244 244 246 249 254 258 262 264 266 268 269 268 270 274 279 283 285 286 286 288 291 293 294 295 296 296 295 296 297 301 304 306 309 311 312 314 316 317 319 319 319 319 319 320 322 323 323 324 325 326 326 326 326 325 325 325 325 325 325 325 325 326 326
263 260 257 255 254 254 254 252 249 246 243 243 240 237 235 235 235 236 240 243 246 247 246 246 246 249 253 257 261 264 266 267 267 269 273 278 282 283 284 285 286 288 290 292 293 294 294 294 295 297 300 303 306 308 310 312 314 316 317 318 319 319 319 319 321 322 323 323 324 325 326 327 326 326 326 327 327 326 326 326 327 327 328 329 329
267 262 258 256 254 254 255 253 251 248 244 242 241 240 238 237 238 239 240 243 245 246 246 247 248 251 253 256 259 262 263 265 267 272 276 279 282 283 284 286 287 289 290 290 291 292 293 295 297 300 302 305 307 309 311 314 315 316 317 318 318 319 319 321 322 323 323 324 325 326 327 326 326 327 328 329 329 329 329 329 329 330 331 332 332
269 264 260 258 255 255 256 257 255 254 251 246 242 241 241 240 240 240 241 242 244 246 246 247 249 252 254 256 258 259 262 265 269 273 277 280 282 284 286 288 289 289 289 289 289 291 294 296 299 301 303 306 308 311 313 315 315 316 317 318 318 319 321 322 323 324 324 325 326 327 327 326 327 328 329 330 331 331 331 332 332 333 334 334 334
271 266 263 261 257 255 256 259 259 259 258 254 249 245 244 244 243 242 242 242 244 246 246 246 249 252 254 255 257 259 262 266 271 275 278 279 281 285 288 290 288 287 286 288 290 292 295 297 299 302 305 307 310 312 313 314 315 316 317 318 318 321 323 323 324 324 325 326 327 327 327 327 328 329 330 331 332 333 334 334 334 335 335 336 336
270 268 266 263 259 256 255 256 258 259 258 257 254 250 246 245 245 244 244 244 245 246 246 246 249 253 254 254 256 260 264 268 272 275 277 279 283 287 289 287 285 284 285 287 290 292 295 298 301 304 306 309 311 312 313 314 315 316 317 317 320 322 323 324 324 324 325 327 327 327 327 328 330 331 332 333 335 336 335 335 335 336 336 337 336
272 272 269 265 262 259 257 256 256 258 257 256 254 251 247 246 246 246 246 245 245 246 246 247 249 252 253 255 258 262 266 269 273 278 281 283 285 285 284 282 281 283 285 287 290 293 296 300 302 305 307 309 310 312 313 314 315 316 317 319 322 323 323 324 324 324 326 327 327 327 328 329 331 333 334 335 336 337 336 335 336 337 337 337 337
276 275 273 270 266 262 260 259 258 258 258 257 255 253 250 249 249 249 248 246 244 245 246 246 248 251 253 256 260 264 268 272 276 279 281 280 279 278 278 278 280 283 286 289 292 295 298 300 303 305 307 309 310 312 313 313 314 316 318 321 322 323 323 323 324 324 326 327 327 328 329 330 332 334 335 335 337 337 336 336 336 337 338 338 338
278 277 276 274 270 266 264 262 262 261 261 261 260 257 254 252 251 250 250 250 248 247 247 247 248 250 252 255 258 262 266 270 272 273 273 273 273 274 276 278 281 284 287 291 293 296 298 301 303 306 308 309 311 311 312 313 315 317 320 321 322 322 323 323 324 325 326 327 327 328 329 331 333 334 335 336 337 337 336 336 336 337 338 338 338
279 279 280 278 274 270 267 264 264 265 264 264 263 261 258 255 252 251 251 251 251 251 250 249 249 250 252 254 257 260 263 265 266 267 268 270 272 274 276 279 282 286 289 292 294 297 300 302 305 307 308 309 310 311 311 313 316 319 320 321 321 323 323 323 324 325 326 327 328 329 330 331 333 335 336 336 337 337 336 335 336 337 339 339 339
281 282 281 280 278 273 269 266 265 265 265 265 264 262 261 258 256 255 254 253 252 252 252 252 252 254 257 259 261 261 261 262 264 266 268 271 273 275 278 281 285 288 290 293 296 299 301 303 305 307 308 309 309 310 312 315 318 319 319 320 321 323 323 323 325 325 326 327 328 329 330 332 333 335 335 336 336 336 335 335 335 337 339 340 340
282 284 284 283 281 276 271 267 264 263 264 264 263 261 261 260 260 259 260 258 256 255 255 256 257 259 262 264 264 264 264 264 266 268 271 273 275 278 281 284 287 289 292 296 298 300 302 304 305 306 307 308 309 311 314 316 317 318 319 320 321 322 323 324 325 326 326 327 328 330 331 332 333 334 335 335 335 335 335 335 336 338 339 340 341
284 285 285 285 284 279 273 267 264 262 262 262 261 260 259 260 260 260 261 261 260 259 259 259 261 262 264 265 267 268 269 270 271 272 274 276 278 281 284 286 289 292 295 297 299 300 301 303 304 305 306 307 309 313 315 316 316 318 319 320 321 322 323 324 326 326 326 327 328 330 331 332 333 333 334 334 334 335 336 336 337 339 341 341 341
283 284 284 283 282 279 274 268 264 263 262 262 261 260 258 258 258 259 260 259 259 259 259 260 261 263 264 266 267 268 270 272 273 275 277 279 281 283 286 288 291 294 295 296 297 299 300 302 304 305 306 308 311 313 314 315 316 318 319 320 321 322 323 325 326 326 326 327 328 330 331 332 332 333 333 334 335 337 338 339 339 341 342 342 341
280 280 281 281 281 279 275 269 264 262 262 263 262 261 260 258 258 258 259 260 260 259 259 258 258 260 262 264 266 268 269 271 273 275 277 280 282 284 287 289 291 292 293 295 296 298 300 302 303 304 306 309 312 312 313 314 316 317 318 320 321 322 323 325 325 326 326 327 329 331 331 332 332 333 334 335 337 339 340 340 340 341 342 342 342
277 277 278 281 282 281 278 272 266 262 261 262 263 263 262 260 258 258 258 259 261 261 260 259 259 260 262 264 266 269 271 273 275 277 279 281 283 286 288 289 290 291 293 295 297 298 300 302 304 306 308 309 310 311 313 314 315 316 318 319 320 322 323 325 325 325 325 327 329 331 331 332 333 334 335 337 338 339 339 340 340 341 342 342 342
273 274 276 279 280 281 281 278 273 268 264 263 263 264 264 262 261 260 259 260 262 263 263 262 262 263 264 266 268 270 273 275 276 278 280 282 285 287 287 288 289 291 293 295 296 298 300 303 305 307 307 308 309 311 312 314 315 316 318 319 320 321 323 325 325 325 325 327 329 331 331 332 333 334 336 337 338 338 338 339 340 341 342 343 342
270 271 274 277 279 281 283 282 279 275 270 267 266 265 265 264 264 264 264 264 264 265 265 265 265 265 266 268 269 271 273 275 277 278 280 282 284 285 286 287 289 291 293 295 297 299 302 304 305 305 305 307 309 310 312 313 315 316 317 318 320 321 323 324 324 324 325 327 329 330 331 332 333 334 335 337 337 337 337 338 339 341 343 343 343
267 269 272 275 277 281 283 283 282 278 275 272 270 269 268 267 266 266 266 267 267 268 268 268 268 269 269 270 271 273 274 276 278 279 280 281 283 284 286 288 290 292 293 296 299 301 302 302 302 303 304 306 308 310 312 313 314 315 317 318 319 321 322 323 323 323 324 326 329 329 330 331 332 333 335 337 337 337 337 338 340 341 343 344 345
267 269 271 273 275 279 282 283 282 280 277 274 272 272 271 270 270 269 269 269 269 270 271 271 272 273 273 274 275 275 276 277 279 280 281 282 283 285 287 289 291 293 296 299 300 300 300 300 301 303 304 306 308 310 312 313 314 315 316 317 319 320 321 322 322 322 324 326 328 329 330 331 332 334 335 337 337 337 337 338 341 342 343 344 345
266 268 270 272 274 277 280 282 282 281 279 276 273 271 271 271 271 272 273 273 273 273 274 275 276 277 277 278 278 278 278 279 280 281 282 283 285 287 290 293 295 297 298 298 297 297 298 300 301 302 304 307 308 310 311 312 313 314 315 317 318 319 320 320 321 322 323 326 327 328 330 331 332 334 335 337 337 337 337 338 341 343 343 344 345
265 267 269 271 273 276 278 280 281 282 282 280 277 274 272 271 271 272 274 275 276 277 278 278 278 279 279 280 281 282 282 282 283 284 285 288 290 293 295 297 297 296 295 295 296 297 299 299 300 302 305 307 308 308 310 311 312 313 314 316 317 318 319 319 320 321 323 325 327 328 329 331 333 334 335 336 337 337 337 338 341 343 343 343 344
264 266 268 269 271 273 276 278 280 281 282 281 280 278 275 273 273 273 274 274 274 276 278 279 280 281 281 280 281 282 283 284 285 287 289 291 292 293 294 294 294 294 295 296 297 297 297 298 300 303 304 305 306 308 309 310 311 312 314 315 316 317 318 319 319 321 322 324 326 327 329 331 332 334 335 336 337 336 337 339 341 342 343 343 343
263 265 266 267 269 271 274 276 278 280 281 281 281 280 278 277 275 274 273 273 272 273 275 277 280 282 282 281 281 281 282 283 284 286 288 289 290 291 292 294 295 295 295 295 295 295 297 298 300 302 303 304 305 306 308 309 310 311 313 314 315 317 317 318 319 320 321 324 326 327 328 330 332 333 334 335 336 336 337 339 341 342 342 343 343
262 263 265 266 267 269 272 275 277 280 281 281 281 281 281 280 279 278 276 275 274 273 273 275 277 279 281 281 281 281 282 283 284 286 287 288 289 290 291 291 292 291 291 292 293 295 296 298 299 301 302 303 304 306 307 308 309 311 312 313 314 316 317 317 318 319 321 323 325 326 328 330 331 332 334 335 336 336 338 340 341 341 341 341 342
261 262 264 265 267 269 271 274 276 278 280 281 282 282 282 282 282 281 280 279 278 277 277 277 277 278 279 280 281 281 282 283 284 285 285 286 286 286 287 288 289 289 290 292 293 295 296 297 298 300 301 302 304 305 306 307 309 310 311 312 314 316 316 317 317 318 321 323 324 325 327 329 330 332 333 334 335 336 338 340 340 340 340 340 341
260 262 264 266 268 269 271 273 275 277 278 280 281 281 282 282 282 282 281 280 280 280 280 280 279 279 280 280 280 280 280 281 282 282 283 284 285 286 287 288 289 290 291 293 294 295 296 297 298 299 301 302 303 304 305 307 308 309 310 312 314 315 316 316 317 318 320 323 324 324 326 328 330 331 333 333 334 336 338 340 340 339 339 339 340
261 263 265 266 266 268 270 272 274 276 278 279 280 281 282 282 282 282 282 281 281 281 280 280 280 280 280 280 280 280 280 280 281 282 283 285 286 287 288 289 290 291 292 293 294 295 296 297 298 300 301 302 303 304 305 306 308 308 309 312 314 315 315 316 317 318 320 321 322 323 325 327 329 331 332 333 334 335 337 339 339 338 338 338 338
261 263 264 264 266 267 269 271 273 275 277 279 280 281 282 283 283 283 283 282 281 281 280 279 279 279 279 279 280 281 281 282 282 283 284 286 287 288 289 290 291 293 294 295 295 295 296 297 298 299 300 302 303 304 305 306 307 308 310 312 313 314 314 315 316 317 319 320 321 323 325 327 328 330 331 332 333 335 336 338 338 337 337 337 337
260 261 263 264 266 268 270 272 273 275 278 279 281 283 284 285 285 285 284 282 281 280 280 279 279 279 279 279 280 282 282 283 284 284 285 287 288 289 289 291 292 294 295 295 295 295 296 297 298 299 301 302 303 303 304 305 307 308 310 312 312 313 313 314 315 316 318 319 321 322 324 326 328 329 330 331 333 334 335 336 336 335 335 335 335
259 261 263 264 266 268 270 272 274 276 278 280 282 284 286 286 287 287 286 283 281 280 279 280 280 280 280 280 281 282 283 284 285 285 286 287 288 289 290 292 294 295 296 295 295 295 296 297 298 300 301 302 302 303 305 306 307 309 310 311 311 311 312 314 315 316 317 318 320 322 324 326 327 329 329 330 332 333 334 334 334 333 333 333 334
260 262 263 265 267 268 270 272 274 275 278 280 282 284 285 287 289 289 287 284 281 279 279 280 280 280 281 281 282 283 284 284 285 285 286 287 288 290 291 293 295 296 296 296 295 296 297 298 300 301 302 302 303 305 306 307 307 308 309 310 310 311 312 313 314 316 317 318 320 322 324 326 327 328 328 329 330 331 332 332 331 331 331 332 332
260 262 263 265 266 268 270 272 273 275 278 279 281 283 285 287 289 289 288 286 282 280 279 279 280 280 281 282 282 282 282 283 284 284 285 287 288 290 292 294 295 296 296 296 296 297 298 299 301 302 302 304 305 306 306 306 307 308 308 309 310 311 312 313 315 316 317 318 321 324 325 326 326 326 327 328 329 329 329 330 329 329 329 330 330
260 262 264 265 267 268 270 272 274 276 278 279 280 282 284 287 289 289 288 285 282 280 279 279 279 280 280 281 281 281 282 283 284 285 286 287 289 291 293 295 296 296 296 296 297 298 299 301 302 303 304 306 306 305 305 306 307 308 309 310 311 311 312 314 315 317 318 320 323 325 325 325 325 325 326 326 326 327 327 327 327 327 327 328 328
262 264 265 267 269 270 272 273 275 277 278 279 280 281 284 286 289 288 285 281 279 278 278 277 277 278 278 279 280 281 282 284 285 286 288 289 291 292 293 295 295 296 296 298 299 300 301 302 303 304 306 306 305 305 305 307 308 309 310 310 311 312 313 314 317 319 320 322 323 323 323 323 323 323 324 324 324 325 325 325 324 324 325 326 326
263 264 266 268 270 272 273 274 275 277 278 279 280 282 284 286 287 285 281 276 275 276 277 278 278 279 280 281 282 283 284 286 287 287 288 289 290 291 292 294 296 297 299 300 301 302 303 303 304 305 305 305 304 305 306 307 308 309 310 310 311 312 314 316 319 320 321 321 320 320 320 320 321 321 322 322 322 323 323 322 322 322 323 324 325
264 266 268 270 271 273 274 275 276 277 278 279 280 282 284 285 284 281 278 275 274 275 276 277 278 279 281 281 282 283 285 286 286 287 288 289 290 292 295 297 299 301 302 303 303 302 302 302 303 304 304 304 304 305 305 307 308 310 310 311 312 313 316 318 319 319 319 318 318 318 318 318 319 319 320 320 320 320 320 320 320 321 321 322 323
266 267 269 271 272 273 273 274 275 276 277 278 280 281 283 283 282 280 278 276 275 275 275 274 274 275 276 277 278 280 283 286 287 288 289 291 293 296 298 300 301 301 302 301 301 301 301 301 302 302 303 303 304 305 306 308 310 311 311 311 312 314 315 317 317 317 316 316 316 316 316 317 317 318 318 318 318 318 318 318 318 319 320 321 322
266 267 269 271 271 271 272 273 274 276 277 278 280 282 282 282 280 277 276 275 274 273 273 273 273 273 273 274 276 279 283 285 287 288 289 291 294 297 298 299 299 300 300 300 300 300 299 299 300 301 302 303 304 306 308 310 311 311 311 312 313 314 314 315 315 315 314 314 314 315 315 316 316 316 316 316 316 316 316 316 317 317 319 320 320
266 267 269 270 270 271 272 273 275 276 277 279 280 281 281 280 277 275 273 272 271 271 270 270 271 272 273 275 276 278 279 280 282 284 286 289 292 295 297 297 297 297 298 299 299 300 300 301 301 302 303 305 307 308 309 309 309 310 311 312 312 313 313 313 313 313 313 313 314 314 314 314 314 315 314 314 314 314 314 314 315 316 318 318 319
266 267 268 269 271 272 273 274 275 277 278 279 280 281 279 277 275 274 272 271 270 269 269 269 270 272 274 275 275 275 275 277 279 281 283 286 290 293 294 294 295 295 296 297 298 299 300 301 303 304 305 307 308 308 307 307 308 309 310 311 311 311 310 311 311 311 312 312 313 313 313 313 313 313 312 312 312 312 312 313 315 316 317 317 318
267 268 268 269 271 272 274 275 276 277 279 280 279 278 277 275 273 272 271 270 269 269 269 269 270 272 275 277 277 277 277 278 280 282 283 286 288 290 291 292 293 294 295 295 296 297 298 299 301 302 304 305 305 305 305 305 307 308 309 309 309 309 309 310 311 311 311 311 311 311 311 311 311 311 310 310 310 310 311 313 314 315 316 316 317
268 269 269 270 271 272 274 275 276 277 278 278 277 275 273 272 271 270 269 269 269 269 269 269 269 271 274 276 277 277 278 279 280 282 284 286 287 288 288 290 291 292 294 295 295 295 296 297 298 300 302 302 303 302 303 304 305 306 307 307 308 308 308 309 309 309 309 309 309 309 309 309 309 309 308 308 308 310 311 313 314 314 315 316 316
269 270 270 271 272 273 274 275 275 275 275 274 273 272 272 271 270 269 269 268 268 268 268 268 269 271 272 275 277 278 279 279 281 283 284 285 286 286 287 288 289 291 292 292 292 292 294 295 297 298 299 300 300 301 302 304 305 305 306 306 306 306 306 306 307 306 306 306 307 307 307 307 307 306 306 307 308 310 311 312 313 314 315 315 315
269 270 271 271 272 272 272 272 273 273 272 272 271 271 271 270 270 270 270 269 269 269 269 269 270 271 272 274 276 277 279 280 281 282 283 283 284 284 285 286 287 288 288 289 289 291 292 294 295 296 297 298 300 301 302 303 303 303 303 303 303 303 303 304 304 304 304 305 305 306 306 305 305 305 305 307 309 310 311 312 313 313 314 314 314
269 270 270 270 270 270 270 270 271 270 270 270 270 269 269 269 269 269 269 269 269 269 269 269 269 269 270 272 273 275 276 278 279 280 281 282 283 284 285 286 287 287 287 288 290 291 292 293 294 296 297 299 300 300 299 298 298 298 299 300 300 301 301 302 302 302 303 303 304 304 304 303 303 304 306 308 309 310 311 312 312 313 313 314 314
268 268 269 268 268 269 269 269 269 269 269 269 269 269 269 268 268 268 268 268 268 268 268 268 268 268 269 270 271 272 273 274 276 277 279 280 281 282 283 284 285 286 287 289 290 291 291 292 293 294 294 295 294 293 293 294 295 296 297 298 299 299 299 300 300 301 302 303 303 302 302 302 304 305 307 308 309 310 311 311 312 312 313 314 315
266 266 266 267 267 268 268 268 267 267 268 269 269 268 267 267 267 267 267 267 268 268 268 268 268 269 269 270 270 271 272 273 274 275 277 278 279 279 280 281 282 282 283 283 284 285 286 287 287 288 289 289 289 290 291 292 293 294 295 296 297 297 298 299 300 301 301 301 301 301 302 303 305 306 308 308 309 310 310 311 312 313 314 314 315
265 266 266 266 267 268 268 269 269 269 269 269 268 268 268 267 267 267 267 267 268 268 268 268 269 269 270 270 271 271 272 272 273 274 275 275 275 275 275 276 277 277 278 279 279 280 281 282 283 285 286 286 287 288 290 291 292 293 294 295 296 296 298 299 300 300 300 300 301 302 304 305 306 307 308 308 309 310 311 312 313 313 314 314 315
Height
10682 10683 10684 10686 10687 10686 10685 10685 10686 10687 10688 10690 10691 10694 10695 10696 10697 10698 10700 10701 10701 10702 10701 10701 10702 10702 10702 10703 10704 10704 10704 10705 10705 10705 10705 10704 10703 10702 10701 10700 10699 10697 10695 10693 10691 10688 10685 10683 10681 10678 10674 10671 10667 10664 10660 10655 10651 10647 10642 10637 10632 10627 10621 10615 10610 10604 10598 10592 10586 10580 10574 10568 10561 10554 10546 10539 10532 10524 10517 10511 10504 10497 10490 10483 10477
10678 10679 10682 10683 10682 10681 10680 10681 10682 10684 10685 10686 10687 10689 10691 10692 10693 10694 10695 10696 10696 10696 10697 10697 10697 10698 10698 10698 10698 10699 10699 10700 10701 10701 10700 10699 10698 10697 10696 10695 10694 10692 10690 10688 10685 10683 10680 10678 10675 10672 10669 10665 10662 10658 10654 10650 10645 10641 10636 10631 10626 10621 10615 10610 10604 10598 10592 10586 10579 10573 10567 10561 10554 10547 10539 10532 10524 10517 10510 10503 10496 10489 10482 10475 10468
10675 10677 10678 10678 10678 10677 10677 10677 10678 10680 10682 10682 10683 10685 10687 10688 10689 10690 10691 10691 10692 10692 10693 10693 10692 10693 10693 10693 10694 10694 10695 10696 10696 10695 10695 10694 10693 10693 10691 10690 10689 10687 10685 10682 10680 10678 10675 10673 10670 10667 10663 10660 10657 10653 10649 10644 10640 10635 10630 10625 10620 10615 10609 10604 10598 10593 10587 10581 10574 10568 10561 10554 10548 10541 10534 10526 10518 10510 10503 10496 10490 10483 10475 10468 10460
10673 10674 10675 10674 10674 10674 10673 10673 10675 10677 10678 10678 10680 10682 10683 10684 10685 10686 10687 10687 10687 10688 10688 10688 10688 10688 10689 10689 10690 10690 10691 10691 10690 10690 10689 10689 10689 10687 10686 10685 10684 10682 10680 10677 10675 10673 10670 10668 10665 10661 10658 10655 10651 10647 10643 10639 10634 10630 10625 10620 10615 10610 10604 10598 10593 10587 10582 10576 10570 10563 10556 10548 10541 10534 10527 10520 10512 10505 10497 10490 10483 10476 10469 10462 10454
10670 10671 10671 10671 10671 10670 10670 10670 10672 10673 10674 10674 10676 10678 10678 10680 10681 10682 10683 10683 10683 10683 10683 10683 10683 10684 10684 10685 10686 10686 10686 10686 10685 10685 10685 10684 10683 10682 10681 10680 10678 10676 10674 10672 10670 10668 10665 10662 10659 10656 10653 10649 10645 10641 10637 10633 10629 10624 10620 10615 10609 10604 10599 10593 10587 10582 10576 10571 10564 10558 10551 10544 10537 10529 10521 10513 10506 10498 10491 10484 10476 10469 10462 10454 10447
10668 10667 10667 10667 10668 10667 10667 10667 10669 10670 10670 10671 10672 10673 10674 10675 10676 10677 10678 10679 10679 10679 10679 10679 10679 10680 10680 10681 10681 10682 10681 10681 10680 10680 10679 10679 10678 10677 10676 10675 10673 10671 10669 10667 10665 10662 10660 10657 10654 10650 10647 10643 10639 10636 10631 10627 10623 10619 10614 10609 10604 10599 10593 10588 10583 10577 10571 10565 10559 10552 10546 10539 10532 10524 10516 10509 10501 10493 10485 10478 10470 10463 10455 10448 10440
10664 10663 10664 10664 10664 10664 10664 10664 10665 10666 10666 10667 10668 10669 10670 10671 10672 10673 10674 10675 10675 10675 10676 10676 10676 10676 10676 10676 10676 10676 10676 10676 10675 10675 10675 10674 10673 10672 10671 10670 10668 10666 10664 10662 10659 10657 10654 10651 10648 10645 10641 10638 10634 10630 10626 10622 10618 10614 10609 10604 10599 10594 10588 10583 10577 10572 10566 10560 10554 10548 10541 10534 10527 10519 10512 10505 10497 10489 10481 10472 10465 10458 10450 10443 10435
10660 10660 10660 10660 10660 10660 10660 10661 10661 10662 10663 10663 10664 10665 10666 10667 10667 10669 10670 10671 10671 10671 10671 10672 10672 10672 10671 10671 10671 10671 10671 10671 10670 10670 10669 10669 10668 10667 10666 10665 10663 10660 10658 10656 10654 10651 10649 10646 10643 10640 10636 10632 10629 10625 10622 10617 10613 10609 10604 10599 10594 10589 10583 10578 10572 10567 10561 10555 10549 10543 10537 10529 10522 10514 10507 10499 10491 10484 10476 10468 10461 10454 10447 10439 10432
10656 10657 10657 10656 10656 10656 10656 10657 10657 10658 10658 10659 10659 10661 10662 10662 10663 10664 10665 10666 10666 10666 10667 10667 10667 10667 10667 10666 10666 10666 10666 10666 10666 10665 10664 10664 10663 10662 10661 10659 10657 10655 10653 10651 10648 10646 10643 10640 10637 10634 10631 10628 10624 10621 10617 10613 10609 10604 10599 10594 10589 10584 10578 10573 10568 10562 10556 10551 10545 10539 10532 10524 10516 10509 10502 10494 10487 10479 10472 10464 10457 10449 10441 10434 10427
10653 10654 10653 10653 10652 10652 10652 10653 10653 10654 10654 10654 10655 10656 10656 10657 10658 10659 10660 10660 10661 10661 10662 10662 10663 10663 10662 10662 10662 10662 10662 10661 10661 10660 10659 10659 10657 10656 10655 10653 10651 10649 10647 10645 10643 10640 10638 10635 10632 10629 10626 10623 10619 10616 10612 10608 10604 10599 10594 10589 10584 10579 10574 10568 10563 10557 10551 10546 10540 10533 10526 10519 10512 10505 10498 10491 10484 10476 10468 10460 10452 10445 10437 10429 10422
10650 10650 10650 10650 10649 10649 10649 10649 10649 10649 10650 10650 10651 10651 10652 10653 10653 10654 10655 10655 10656 10657 10657 10657 10658 10658 10658 10657 10657 10656 10656 10655 10655 10654 10653 10652 10651 10650 10649 10647 10646 10644 10642 10640 10638 10635 10633 10630 10628 10625 10621 10618 10614 10611 10607 10603 10599 10594 10589 10584 10579 10574 10569 10563 10558 10552 10546 10540 10534 10527 10520 10513 10506 10500 10493 10486 10479 10471 10464 10457 10450 10443 10435 10427 10419
10646 10646 10647 10647 10646 10646 10645 10645 10645 10645 10646 10646 10647 10647 10648 10648 10649 10650 10651 10651 10652 10652 10652 10652 10652 10652 10652 10651 10651 10650 10650 10650 10649 10648 10648 10647 10646 10645 10644 10642 10641 10639 10637 10635 10633 10631 10628 10625 10623 10619 10616 10613 10609 10606 10602 10598 10593 10589 10584 10580 10575 10569 10564 10558 10552 10546 10540 10535 10529 10522 10515 10507 10501 10494 10487 10480 10473 10466 10459 10453 10446 10440 10434 10426 10417
10643 10643 10644 10644 10643 10642 10642 10641 10642 10642 10642 10642 10643 10644 10644 10645 10645 10646 10647 10647 10647 10647 10647 10647 10647 10647 10647 10646 10646 10646 10645 10645 10644 10643 10643 10642 10641 10640 10639 10637 10636 10634 10632 10630 10628 10625 10623 10620 10617 10614 10611 10608 10604 10601 10597 10592 10588 10584 10579 10575 10570 10564 10559 10553 10547 10541 10535 10530 10524 10517 10510 10503 10496 10490 10483 10476 10469 10462 10455 10448 10442 10436 10430 10424 10416
10639 10640 10640 10640 10640 10639 10638 10638 10638 10639 10639 10639 10639 10640 10640 10641 10642 10642 10642 10643 10642 10642 10643 10643 10643 10643 10642 10642 10642 10641 10641 10640 10639 10639 10638 10637 10636 10635 10634 10633 10631 10629 10627 10625 10623 10620 10618 10615 10612 10609 10606 10602 10599 10595 10591 10587 10583 10579 10574 10569 10564 10559 10553 10547 10542 10536 10530 10525 10519 10512 10505 10498 10492 10485 10479 10473 10468 10461 10454 10446 10439 10432 10425 10419 10413
10636 10637 10637 10637 10636 10636 10635 10635 10635 10635 10635 10635 10635 10635 10636 10636 10637 10638 10638 10639 10638 10638 10638 10638 10638 10637 10637 10637 10637 10636 10636 10635 10634 10634 10633 10632 10631 10630 10629 10627 10625 10624 10622 10620 10618 10615 10612 10610 10607 10604 10601 10597 10594 10590 10586 10582 10578 10573 10569 10564 10559 10553 10548 10542 10537 10531 10526 10520 10514 10507 10501 10494 10488 10482 10476 10470 10464 10458 10450 10442 10434 10426 10419 10412 10406
10633 10633 10633 10633 10633 10632 10632 10632 10632 10632 10632 10631 10631 10631 10631 10632 10633 10633 10634 10634 10634 10634 10633 10633 10632 10632 10632 10632 10631 10631 10631 10630 10629 10629 10628 10627 10626 10624 10623 10622 10620 10619 10617 10615 10613 10610 10607 10605 10601 10598 10595 10592 10588 10585 10581 10577 10573 10568 10563 10558 10553 10548 10542 10537 10532 10526 10521 10515 10509 10503 10496 10490 10483 10478 10472 10465 10458 10451 10442 10435 10427 10421 10415 10409 10403
10630 10630 10630 10629 10629 10629 10629 10628 10628 10628 10628 10628 10628 10628 10627 10628 10628 10629 10629 10629 10629 10629 10629 10628 10627 10627 10627 10627 10626 10626 10626 10625 10624 10623 10622 10621 10620 10619 10618 10616 10615 10614 10612 10609 10607 10605 10602 10599 10596 10593 10590 10586 10583 10580 10576 10572 10567 10562 10558 10553 10548 10543 10538 10533 10527 10522 10517 10511 10505 10499 10492 10485 10478 10472 10466 10460 10453 10446 10439 10432 10426 10420 10414 10409 10403
10627 10626 10626 10626 10626 10626 10625 10625 10625 10624 10624 10624 10624 10624 10624 10624 10624 10625 10625 10624 10624 10624 10623 10623 10622 10622 10622 10622 10621 10620 10620 10619 10619 10618 10617 10616 10615 10614 10612 10611 10610 10608 10606 10604 10601 10599 10597 10594 10591 10588 10584 10581 10578 10575 10571 10567 10562 10557 10552 10548 10543 10538 10533 10528 10522 10517 10512 10506 10500 10494 10488 10481 10474 10467 10461 10454 10449 10444 10438 10432 10426 10420 10414 10408 10402
10623 10623 10622 10622 10622 10622 10622 10621 10621 10620 10620 10620 10621 10621 10620 10620 10620 10620 10620 10620 10620 10619 10618 10618 10617 10617 10617 10617 10616 10615 10614 10614 10613 10612 10611 10610 10609 10608 10607 10606 10604 10602 10600 10598 10596 10593 10591 10588 10585 10582 10579 10576 10573 10570 10566 10561 10556 10551 10547 10542 10538 10532 10527 10522 10517 10512 10507 10501 10496 10490 10483 10477 10470 10464 10458 10453 10447 10443 10438 10432 10426 10419 10412 10406 10400
10619 10619 10619 10619 10618 10618 10618 10617 10616 10616 10615 10616 10616 10616 10616 10616 10616 10616 10616 10615 10615 10615 10614 10613 10612 10612 10612 10611 10610 10610 10609 10608 10607 10607 10606 10605 10604 10603 10602 10601 10599 10597 10595 10593 10590 10588 10585 10582 10580 10577 10574 10571 10567 10564 10560 10556 10551 10546 10541 10537 10533 10528 10523 10518 10513 10508 10503 10497 10492 10486 10480 10474 10468 10462 10457 10451 10446 10441 10436 10430 10424 10418 10411 10404 10397
10615 10615 10615 10615 10614 10614 10614 10613 10612 10611 10611 10611 10611 10611 10611 10611 10611 10611 10611 10610 10610 10610 10609 10608 10607 10607 10606 10605 10604 10604 10603 10603 10602 10601 10601 10600 10599 10598 10597 10595 10593 10591 10589 10587 10585 10582 10580 10577 10574 10572 10568 10565 10562 10558 10555 10550 10545 10541 10537 10533 10528 10523 10519 10514 10508 10503 10498 10493 10488 10482 10477 10471 10466 10460 10454 10448 10442 10437 10431 10426 10420 10414 10408 10402 10395
10610 10610 10610 10610 10610 10610 10610 10609 10608 10607 10607 10607 10607 10606 10606 10606 10606 10606 10605 10605 10605 10605 10603 10602 10602 10601 10600 10599 10599 10598 10598 10597 10596 10596 10595 10594 10594 10592 10591 10590 10588 10586 10584 10581 10579 10577 10574 10572 10569 10566 10563 10560 10556 10553 10549 10545 10540 10536 10531 10528 10523 10519 10514 10509 10504 10499 10494 10489 10484 10479 10473 10468 10462 10456 10450 10444 10439 10433 10427 10421 10415 10409 10404 10399 10393
10605 10605 10605 10606 10606 10606 10605 10604 10603 10603 10603 10603 10602 10602 10601 10601 10600 10600 10600 10600 10600 10599 10598 10597 10597 10596 10595 10594 10593 10593 10593 10592 10591 10590 10590 10589 10588 10587 10586 10584 10582 10580 10578 10576 10574 10572 10569 10566 10563 10560 10557 10554 10550 10547 10543 10539 10535 10530 10526 10522 10518 10514 10509 10504 10499 10494 10490 10485 10480 10475 10469 10463 10458 10452 10446 10440 10434 10429 10423 10417 10412 10406 10400 10395 10390
10600 10600 10601 10601 10601 10601 10601 10599 10598 10598 10599 10598 10597 10597 10596 10595 10595 10595 10594 10595 10595 10594 10593 10592 10592 10591 10590 10588 10588 10587 10588 10587 10586 10585 10584 10583 10582 10581 10580 10578 10576 10575 10573 10571 10568 10566 10563 10560 10557 10554 10551 10548 10545 10541 10537 10534 10530 10525 10521 10517 10513 10508 10503 10498 10494 10489 10485 10481 10476 10471 10465 10459 10454 10448 10442 10436 10431 10425 10420 10414 10408 10403 10397 10391 10386
10595 10595 10596 10596 10596 10596 10596 10595 10594 10594 10594 10593 10592 10592 10591 10591 10591 10590 10590 10590 10590 10589 10588 10587 10587 10586 10585 10584 10583 10583 10582 10582 10581 10580 10579 10578 10577 10576 10575 10573 10572 10570 10567 10565 10562 10560 10557 10554 10551 10548 10545 10542 10539 10535 10531 10528 10524 10520 10516 10512 10508 10503 10498 10493 10489 10484 10480 10476 10472 10466 10461 10455 10450 10444 10439 10433 10427 10422 10416 10410 10404 10399 10394 10388 10382
10591 10591 10591 10592 10591 10591 10591 10590 10590 10590 10589 10589 10588 10587 10586 10586 10586 10585 10585 10585 10585 10585 10584 10583 10583 10582 10581 10580 10579 10578 10578 10577 10576 10575 10575 10574 10573 10571 10570 10568 10566 10564 10561 10559 10556 10554 10551 10548 10545 10542 10539 10536 10532 10529 10525 10522 10518 10515 10511 10507 10502 10497 10492 10488 10483 10479 10475 10471 10467 10461 10456 10450 10445 10440 10435 10430 10424 10418 10412 10407 10401 10396 10391 10386 10380
10585 10586 10586 10586 10587 10587 10587 10586 10586 10585 10585 10584 10583 10582 10582 10582 10581 10581 10581 10581 10580 10580 10579 10579 10579 10577 10576 10575 10574 10574 10574 10573 10572 10571 10570 10569 10567 10565 10564 10562 10560 10557 10555 10553 10550 10547 10544 10542 10539 10536 10533 10530 10526 10523 10519 10516 10512 10509 10505 10501 10497 10492 10487 10482 10478 10474 10470 10466 10461 10456 10451 10446 10441 10436 10431 10425 10420 10414 10409 10403 10398 10393 10388 10384 10378
10579 10580 10581 10581 10581 10582 10582 10582 10581 10581 10580 10580 10579 10578 10577 10577 10577 10577 10577 10576 10575 10575 10574 10574 10574 10572 10571 10570 10569 10568 10568 10567 10566 10566 10564 10562 10561 10559 10558 10556 10553 10551 10549 10546 10544 10541 10538 10535 10532 10529 10527 10523 10520 10517 10513 10510 10507 10503 10499 10495 10491 10486 10482 10477 10472 10468 10464 10461 10456 10451 10446 10441 10436 10431 10426 10421 10416 10411 10405 10400 10395 10390 10385 10380 10375
10574 10574 10575 10576 10576 10576 10577 10577 10577 10576 10575 10575 10574 10572 10573 10573 10572 10572 10572 10571 10570 10570 10569 10569 10568 10567 10565 10564 10563 10563 10562 10561 10560 10559 10557 10555 10554 10552 10551 10549 10546 10544 10542 10540 10537 10534 10532 10529 10526 10523 10520 10517 10514 10510 10507 10504 10501 10497 10493 10489 10485 10480 10476 10471 10466 10462 10458 10454 10450 10445 10440 10436 10431 10425 10420 10416 10411 10406 10400 10396 10391 10386 10381 10376 10371
10569 10568 10569 10569 10569 10570 10571 10572 10571 10570 10570 10570 10568 10567 10568 10567 10566 10566 10566 10565 10565 10565 10564 10563 10563 10561 10560 10557 10556 10556 10555 10554 10553 10552 10550 10548 10547 10545 10543 10541 10539 10537 10535 10533 10530 10528 10525 10522 10519 10517 10514 10511 10507 10504 10501 10498 10495 10491 10487 10483 10479 10475 10470 10465 10461 10456 10452 10449 10444 10440 10435 10430 10425 10420 10415 10410 10405 10400 10395 10390 10386 10382 10377 10372 10367
10563 10562 10562 10562 10563 10564 10565 10566 10566 10565 10565 10565 10563 10562 10562 10562 10561 10561 10560 10560 10560 10559 10558 10557 10557 10555 10553 10551 10551 10551 10549 10547 10547 10545 10543 10541 10540 10538 10536 10534 10532 10531 10529 10526 10523 10521 10518 10515 10513 10510 10507 10504 10501 10498 10495 10491 10488 10484 10480 10476 10472 10469 10464 10460 10456 10452 10448 10444 10439 10434 10429 10424 10419 10415 10410 10405 10400 10395 10389 10385 10381 10376 10372 10367 10363
10557 10556 10556 10556 10557 10559 10560 10560 10560 10559 10560 10559 10557 10556 10556 10555 10555 10555 10554 10553 10553 10553 10551 10550 10550 10548 10546 10545 10545 10544 10542 10540 10540 10538 10536 10534 10533 10531 10529 10528 10526 10524 10522 10519 10516 10514 10511 10509 10506 10504 10501 10498 10494 10491 10489 10485 10481 10478 10474 10470 10466 10462 10458 10454 10450 10446 10442 10438 10434 10428 10423 10418 10413 10408 10404 10399 10394 10389 10384 10380 10375 10371 10367 10362 10358
10551 10550 10550 10551 10552 10553 10554 10554 10553 10553 10554 10553 10551 10550 10550 10549 10548 10548 10547 10547 10546 10546 10545 10544 10542 10541 10539 10538 10538 10537 10535 10534 10533 10531 10529 10527 10526 10524 10523 10521 10519 10517 10515 10512 10509 10507 10504 10502 10500 10497 10494 10491 10488 10484 10482 10479 10475 10471 10468 10464 10460 10456 10452 10448 10444 10440 10436 10432 10428 10423 10418 10412 10407 10402 10397 10392 10388 10383 10379 10375 10370 10366 10362 10357 10353
10545 10544 10544 10545 10547 10548 10548 10548 10547 10547 10548 10548 10546 10544 10543 10543 10543 10541 10540 10540 10539 10539 10538 10537 10535 10533 10532 10532 10532 10530 10528 10527 10526 10524 10522 10520 10519 10517 10516 10514 10512 10510 10507 10504 10502 10500 10497 10495 10493 10490 10487 10484 10481 10478 10475 10472 10468 10464 10461 10457 10454 10450 10446 10441 10437 10433 10429 10425 10421 10417 10411 10406 10400 10395 10390 10386 10381 10376 10372 10369 10364 10360 10356 10351 10347
10539 10537 10537 10539 10541 10542 10542 10541 10541 10542 10542 10543 10541 10538 10536 10537 10536 10535 10533 10532 10531 10531 10531 10529 10527 10526 10525 10525 10525 10523 10521 10520 10519 10517 10515 10513 10512 10511 10509 10507 10505 10503 10500 10497 10495 10493 10491 10488 10486 10484 10480 10477 10474 10471 10468 10465 10461 10458 10454 10450 10447 10444 10440 10435 10431 10426 10422 10418 10413 10408 10403 10398 10393 10388 10383 10379 10374 10370 10366 10362 10358 10353 10349 10345 10341
10533 10531 10530 10532 10534 10536 10536 10535 10535 10536 10536 10536 10536 10532 10530 10530 10530 10529 10529 10526 10521 10521 10523 10522 10519 10518 10518 10518 10518 10516 10514 10513 10512 10510 10508 10506 10505 10504 10502 10500 10498 10495 10493 10491 10489 10486 10484 10481 10479 10476 10474 10471 10467 10464 10461 10457 10454 10451 10446 10442 10439 10435 10432 10429 10425 10420 10414 10409 10404 10399 10395 10390 10386 10381 10376 10372 10368 10364 10360 10356 10351 10346 10342 10338 10334
10526 10524 10524 10526 10529 10530 10530 10529 10528 10529 10529 10530 10529 10527 10525 10524 10523 10522 10523 10520 10515 10512 10513 10513 10511 10511 10511 10510 10510 10508 10507 10506 10504 10502 10500 10499 10498 10496 10495 10493 10490 10488 10486 10484 10482 10479 10477 10474 10472 10469 10467 10464 10460 10457 10454 10450 10447 10443 10439 10435 10431 10428 10424 10420 10416 10411 10405 10400 10395 10391 10387 10383 10379 10375 10370 10366 10361 10357 10353 10349 10344 10340 10335 10331 10327
10520 10518 10518 10521 10523 10523 10523 10522 10521 10522 10522 10522 10522 10521 10519 10518 10516 10515 10515 10514 10509 10505 10505 10505 10503 10503 10503 10502 10501 10500 10499 10498 10497 10495 10493 10492 10491 10489 10488 10486 10483 10481 10479 10477 10475 10472 10469 10467 10464 10462 10459 10457 10453 10450 10447 10444 10440 10436 10431 10427 10423 10420 10416 10412 10407 10402 10397 10393 10388 10384 10381 10377 10372 10368 10363 10359 10354 10350 10346 10342 10337 10333 10328 10324 10319
10514 10513 10513 10515 10516 10515 10515 10514 10513 10514 10514 10514 10515 10515 10513 10510 10508 10507 10506 10506 10503 10500 10499 10498 10496 10496 10496 10494 10493 10492 10491 10491 10489 10487 10485 10484 10483 10481 10480 10478 10476 10474 10472 10469 10467 10465 10462 10460 10458 10455 10452 10450 10447 10443 10440 10437 10433 10428 10424 10419 10415 10411 10407 10403 10398 10394 10390 10386 10382 10378 10373 10369 10365 10360 10356 10351 10347 10343 10339 10334 10329 10325 10321 10316 10312
10507 10507 10507 10509 10508 10507 10506 10505 10505 10505 10505 10506 10507 10507 10505 10503 10501 10499 10499 10499 10497 10495 10494 10492 10489 10489 10489 10487 10485 10485 10485 10483 10482 10479 10477 10475 10474 10473 10472 10470 10468 10467 10464 10462 10460 10458 10455 10452 10451 10448 10445 10442 10440 10436 10433 10429 10425 10420 10416 10412 10408 10404 10400 10396 10392 10387 10383 10379 10376 10371 10366 10362 10357 10352 10348 10344 10339 10335 10331 10326 10321 10316 10312 10308 10304
10500 10500 10502 10502 10499 10496 10496 10496 10495 10496 10497 10497 10498 10497 10496 10495 10494 10493 10493 10493 10491 10489 10489 10487 10484 10482 10481 10479 10478 10479 10479 10477 10474 10472 10469 10467 10466 10465 10464 10463 10461 10459 10457 10454 10453 10451 10447 10444 10444 10442 10438 10434 10432 10429 10425 10421 10417 10412 10408 10405 10402 10397 10393 10389 10386 10381 10376 10373 10369 10364 10359 10354 10349 10345 10341 10336 10332 10327 10322 10318 10313 10308 10303 10299 10294
10491 10494 10496 10493 10488 10487 10487 10487 10486 10487 10488 10489 10489 10488 10486 10485 10486 10486 10487 10486 10483 10481 10482 10482 10479 10475 10473 10471 10471 10473 10473 10470 10468 10465 10463 10461 10459 10458 10457 10455 10453 10451 10449 10446 10444 10442 10439 10435 10434 10434 10431 10427 10423 10420 10416 10412 10408 10404 10401 10399 10395 10390 10385 10382 10379 10374 10369 10365 10361 10356 10351 10346 10341 10337 10333 10329 10324 10319 10314 10309 10305 10300 10295 10290 10285
10483 10487 10488 10484 10480 10479 10479 10478 10478 10479 10480 10479 10479 10478 10477 10477 10477 10478 10479 10477 10475 10474 10475 10475 10472 10468 10465 10463 10465 10466 10465 10462 10461 10459 10457 10455 10453 10451 10449 10447 10445 10444 10441 10438 10436 10433 10430 10426 10424 10422 10421 10420 10416 10412 10407 10403 10399 10396 10394 10392 10388 10383 10378 10374 10371 10366 10362 10357 10352 10347 10343 10338 10334 10330 10325 10320 10315 10310 10305 10301 10296 10291 10286 10281 10276
10475 10477 10478 10475 10473 10471 10469 10469 10469 10471 10471 10471 10470 10469 10468 10468 10469 10469 10469 10469 10467 10467 10468 10468 10465 10461 10458 10457 10457 10458 10457 10455 10454 10453 10451 10448 10446 10444 10441 10439 10437 10436 10434 10431 10428 10425 10422 10418 10415 10413 10412 10412 10409 10404 10399 10395 10391 10388 10385 10383 10380 10375 10370 10366 10362 10357 10353 10349 10344 10339 10335 10331 10326 10322 10316 10311 10306 10301 10296 10292 10287 10282 10277 10271 10266
10466 10467 10467 10466 10465 10464 10462 10461 10460 10461 10462 10462 10461 10459 10459 10460 10460 10460 10461 10460 10459 10459 10461 10460 10458 10455 10453 10450 10449 10449 10449 10448 10447 10446 10444 10442 10439 10436 10433 10431 10429 10428 10426 10423 10420 10416 10413 10410 10407 10405 10404 10403 10399 10395 10391 10387 10384 10380 10377 10374 10371 10366 10362 10357 10353 10349 10345 10341 10336 10331 10327 10322 10318 10313 10308 10302 10297 10292 10288 10283 10278 10273 10267 10262 10256
10456 10457 10457 10456 10455 10455 10454 10452 10451 10451 10453 10453 10451 10450 10450 10451 10451 10451 10452 10452 10451 10451 10452 10452 10450 10448 10446 10444 10442 10440 10441 10441 10440 10439 10437 10435 10432 10428 10426 10424 10422 10421 10419 10416 10412 10408 10406 10403 10400 10398 10396 10394 10390 10386 10382 10379 10375 10371 10367 10364 10361 10358 10354 10350 10346 10342 10337 10333 10328 10323 10319 10314 10309 10304 10299 10293 10288 10283 10278 10273 10268 10263 10258 10252 10246
10446 10447 10447 10446 10445 10444 10443 10441 10441 10441 10442 10443 10443 10442 10441 10441 10442 10442 10442 10443 10443 10443 10443 10442 10441 10440 10439 10438 10436 10434 10433 10432 10432 10430 10428 10427 10424 10421 10419 10417 10415 10413 10411 10408 10404 10401 10400 10397 10393 10390 10388 10386 10382 10377 10372 10369 10365 10363 10360 10357 10354 10351 10347 10343 10339 10334 10329 10324 10320 10315 10310 10304 10299 10294 10289 10284 10279 10274 10269 10264 10258 10252 10247 10242 10236
10437 10437 10437 10435 10434 10433 10432 10431 10431 10431 10432 10433 10434 10434 10434 10433 10433 10433 10433 10434 10434 10435 10434 10433 10432 10432 10432 10431 10429 10428 10426 10425 10423 10421 10419 10417 10415 10413 10411 10409 10407 10404 10401 10398 10396 10394 10392 10388 10385 10381 10379 10376 10373 10369 10365 10361 10358 10356 10354 10351 10347 10343 10339 10335 10330 10326 10321 10316 10311 10306 10301 10295 10289 10285 10280 10275 10270 10265 10259 10254 10248 10242 10237 10231 10225
10427 10427 10426 10424 10423 10423 10423 10423 10422 10422 10422 10424 10425 10425 10425 10425 10425 10425 10425 10425 10425 10426 10425 10423 10423 10424 10424 10423 10421 10420 10419 10418 10416 10414 10411 10409 10408 10406 10403 10400 10398 10395 10392 10390 10388 10386 10383 10380 10377 10374 10372 10370 10367 10363 10359 10355 10352 10349 10346 10342 10339 10335 10330 10326 10321 10316 10312 10307 10302 10297 10291 10286 10281 10276 10271 10266 10261 10256 10250 10244 10239 10232 10226 10220 10214
10418 10417 10416 10414 10414 10414 10413 10412 10412 10412 10414 10415 10416 10416 10416 10415 10415 10415 10415 10415 10415 10416 10415 10413 10414 10415 10415 10414 10412 10411 10409 10409 10408 10406 10404 10403 10402 10399 10396 10393 10392 10390 10387 10385 10383 10380 10377 10375 10372 10369 10366 10363 10359 10355 10351 10348 10345 10341 10337 10334 10330 10325 10321 10316 10312 10307 10303 10297 10292 10287 10283 10278 10272 10267 10262 10257 10252 10246 10241 10235 10228 10222 10215 10209 10203
10408 10408 10407 10406 10405 10405 10403 10401 10401 10402 10405 10406 10406 10405 10405 10405 10406 10406 10405 10405 10405 10405 10404 10403 10404 10405 10405 10404 10403 10402 10400 10400 10399 10398 10396 10395 10393 10390 10387 10386 10385 10383 10381 10379 10376 10373 10370 10367 10364 10361 10357 10353 10350 10346 10343 10340 10336 10333 10329 10324 10320 10315 10311 10307 10303 10298 10293 10287 10282 10278 10274 10270 10264 10259 10253 10247 10241 10236 10230 10224 10217 10211 10204 10198 10192